Location: Cointrin
(46.2167°N, 6.1167°E)
Time: 02:25:26
(UTC+00:00)

Tiangong - Visible Passes

Search period start: 05 June 2023 00:00
Search period end: 15 June 2023 00:00
Orbit: 386 x 391 km, 41.5° (Epoch: 04 June)

Date Brightness Start Highest point End Pass type
(mag) Time Alt. Az. Time Alt. Az. Time Alt. Az.
05 Jun -0.2 01:51:00 17° SSE 01:51:00 17° SSE 01:53:07 10° ESE visible
06 Jun -1.0 02:27:16 18° SW 02:28:59 29° S 02:31:49 10° ESE visible
07 Jun -0.5 01:31:15 22° SE 01:31:15 22° SE 01:33:14 10° ESE visible
07 Jun -1.3 03:04:09 10° WSW 03:07:07 34° S 03:10:04 10° ESE visible
08 Jun -1.3 02:07:28 25° SW 02:08:38 33° S 02:11:34 10° ESE visible
09 Jun -0.4 01:11:25 21° SE 01:11:25 21° SE 01:12:57 10° ESE visible
09 Jun -1.3 02:43:45 10° WSW 02:46:39 32° S 02:49:33 10° ESE visible
10 Jun -1.5 01:47:43 33° SSW 01:48:04 34° S 01:51:01 10° ESE visible
11 Jun 0.4 00:51:52 13° ESE 00:51:52 13° ESE 00:52:21 10° ESE visible
11 Jun -1.1 02:24:09 16° WSW 02:25:57 27° SSW 02:28:42 10° SE visible
12 Jun -0.6 01:28:33 23° SE 01:28:33 23° SE 01:30:10 10° ESE visible
12 Jun -0.3 03:01:45 10° WSW 03:03:39 15° SSW 03:05:33 10° SSE visible
13 Jun -0.5 02:05:46 19° S 02:05:46 19° S 02:07:27 10° SSE visible
